This demonstration page uses our WeatherBlox Daily Observations layout. Learn more.

Left ArrowRight Arrow

41.55636, -103.73856

Hourly Observations for August 18, 2022

Temp ( °F °C ) Dew Point ( °F °C ) Humidity (%) Winds ( mph kmh ) Pressure ( in mb ) Visibility ( mi km ) Precip ( " mm )
12:58 am 00:58 Clear 66 18.7 53 11.5 63 63 SW 16 26 29.98 1015 10 16 0.00 0.00
1:58 am 01:58 Clear 65 18.1 52 11.2 64 64 SW 18 30 29.97 1015 10 16 0.00 0.00
2:58 am 02:58 Clear 62 16.7 51 10.3 66 66 W 8 13 29.97 1015 10 16 0.00 0.00
3:58 am 03:58 Clear 64 17.5 51 10.4 63 63 NNW 3 6 29.98 1015 10 16 0.00 0.00
4:58 am 04:58 Clear 61 16.1 50 10.2 68 68 ENE 5 7 29.98 1015 10 16 0.00 0.00
5:58 am 05:58 Clear 58 14.3 49 9.7 74 74 SW 5 7 29.99 1016 10 16 0.00 0.00
6:58 am 06:58 Sunny 55 13 48 9.1 77 77 WSW 6 9 30.01 1016 10 16 0.00 0.00
7:58 am 07:58 Sunny 64 18 48 8.8 55 55 NNW 8 13 30.02 1017 10 16 0.00 0.00
8:58 am 08:58 Sunny 69 20.5 51 10.3 52 52 NNW 13 20 30.02 1017 10 16 0.00 0.00
9:58 am 09:58 Sunny 76 24.4 48 8.8 37 37 NNE 15 24 30.00 1016 10 16 0.00 0.00
10:58 am 10:58 Sunny 77 25.2 47 8.6 35 35 NNE 14 22 30.01 1016 10 16 0.00 0.00
11:58 am 11:58 Sunny 82 27.7 49 9.5 32 32 ENE 13 20 30.00 1016 10 16 0.00 0.00
12:58 pm 12:58 Sunny 85 29.2 44 6.5 24 24 ENE 14 22 29.98 1015 10 16 0.00 0.00
1:58 pm 13:58 Mostly Sunny 87 30.3 39 4.1 19 19 NE 14 22 29.97 1015 10 16 0.00 0.00
2:58 pm 14:58 Partly Cloudy 85 29.7 42 5.7 22 22 NE 15 24 29.96 1015 10 16 0.00 0.00
3:58 pm 15:58 Partly Cloudy 87 30.6 37 2.7 17 17 E 14 22 29.93 1014 10 16 0.00 0.00
4:58 pm 16:58 Sunny 86 29.8 36 2.1 17 17 N 8 13 29.93 1014 10 16 0.00 0.00
5:58 pm 17:58 Sunny 85 29.5 37 2.7 18 18 N 7 11 29.92 1013 10 16 0.00 0.00
6:58 pm 18:58 Sunny 84 28.8 37 2.9 19 19 ENE 7 11 29.91 1013 10 16 0.00 0.00
7:58 pm 19:58 Clear 75 24.1 40 4.4 28 28 ESE 7 11 29.91 1013 10 16 0.00 0.00
8:58 pm 20:58 Clear 75 23.7 39 4.1 28 28 SSE 8 13 29.93 1014 10 16 0.00 0.00
9:58 pm 21:58 Clear 69 20.5 39 3.7 33 33 SSW 3 6 29.92 1013 10 16 0.00 0.00
10:58 pm 22:58 Clear 70 21 39 3.7 32 32 Calm 29.93 1014 10 16 0.00 0.00
11:58 pm 23:58 Clear 62 16.7 39 3.7 42 42 WSW 7 11 29.95 1014 10 16 0.00 0.00

Powered by AerisWeather